This is the latest recevied weather packets stored in our database for station/object KB2SKP. If no packets are shown the sender has not sent any weather packets the latest 10 day(s).
| Time | Temp. | Humidity | Pressure | Rain* | Wind** | Luminosity | Snow |
|---|---|---|---|---|---|---|---|
| 1777776007 | 10° C | 69% | 1009 hPa | 0 mm | - | 0 W/m² | - |
| 1777775703 | 10° C | 73% | 1009 hPa | 0 mm | - | 0 W/m² | - |
| 1777775401 | 10° C | 74% | 1009.4 hPa | 0 mm | - | 0 W/m² | - |
| 1777775096 | 10° C | 71% | 1009.3 hPa | 0 mm | - | 0 W/m² | - |
| 1777774791 | 10° C | 75% | 1009.1 hPa | 0 mm | - | 0 W/m² | - |
| 1777774489 | 10° C | 74% | 1009.1 hPa | 0 mm | - | 0 W/m² | - |
| 1777774186 | 9.44° C | 79% | 1009.2 hPa | 0 mm | - | 0 W/m² | - |
| 1777773883 | 9.44° C | 80% | 1009.2 hPa | 0 mm | - | 0 W/m² | - |
| 1777773579 | 9.44° C | 80% | 1009.3 hPa | 0 mm | - | 0 W/m² | - |
| 1777773276 | 9.44° C | 78% | 1009.2 hPa | 0 mm | - | 0 W/m² | - |
| 1777772972 | 9.44° C | 78% | 1009.3 hPa | 0 mm | - | 0 W/m² | - |
| 1777772669 | 10° C | 79% | 1009.3 hPa | 0 mm | - | 0 W/m² | - |
| 1777772368 | 10° C | 77% | 1009 hPa | 0 mm | - | 0 W/m² | - |
| 1777772065 | 10° C | 78% | 1008.9 hPa | 0 mm | - | 0 W/m² | - |
| 1777771762 | 10° C | 78% | 1009.2 hPa | 0 mm | - | 0 W/m² | - |
| 1777771460 | 10° C | 78% | 1009 hPa | 0 mm | - | 0 W/m² | - |
| 1777771155 | 10° C | 77% | 1009 hPa | 0 mm | - | 0 W/m² | - |
| 1777770852 | 10° C | 77% | 1009.1 hPa | 0 mm | - | 0 W/m² | - |
| 1777770549 | 10° C | 77% | 1009.2 hPa | 0 mm | - | 0 W/m² | - |
| 1777770246 | 10° C | 77% | 1009 hPa | 0 mm | - | 0 W/m² | - |
| 1777769943 | 10° C | 76% | 1009 hPa | 0 mm | - | 0 W/m² | - |
| 1777769641 | 10.56° C | 76% | 1008.7 hPa | 0 mm | - | 0 W/m² | - |
| 1777769337 | 10.56° C | 75% | 1008.8 hPa | 0 mm | - | 0 W/m² | - |
| 1777769034 | 10.56° C | 75% | 1008.6 hPa | 0 mm | - | 0 W/m² | - |
| 1777768732 | 10.56° C | 74% | 1008.6 hPa | 0 mm | - | 0 W/m² | - |
* Rain latest hour (hover to see other rain measurements)
** Current wind speed in m/s (hover to see current wind gust speed)